CW3065 Weather Reports


time (UTC)temp
F
wind
direction
speed
knots
gust
knots
rain 1hr
in
rain 24hr
in
rain mn
in
humidity
%
barometer
mb
20260508135505 40 219 0.9 2.6 0.00 0.01 0.00 83 1009.4
20260508135004 39 219 0.9 2.6 0.00 0.01 0.00 84 1009.4
20260508134504 39 219 4.3 4.3 0.00 0.01 0.00 84 1009.3
20260508134004 39 219 0.9 2.6 0.00 0.01 0.00 85 1009.4
20260508133504 38 219 0.0 0.0 0.00 0.01 0.00 86 1009.5
20260508133004 38 219 0.0 0.0 0.00 0.01 0.00 87 1009.5
20260508132504 38 219 0.0 0.0 0.00 0.01 0.00 89 1010.0
20260508131504 36 219 0.9 1.7 0.00 0.01 0.00 90 1009.8
20260508130504 35 290 0.0 0.0 0.00 0.01 0.00 91 1009.6
20260508130004 35 290 0.0 0.0 0.00 0.01 0.00 91 1009.6
20260508125504 35 290 0.9 2.6 0.00 0.01 0.00 91 1009.6
20260508125004 35 290 2.6 4.3 0.00 0.01 0.00 91 1009.6
20260508124504 35 290 2.6 4.3 0.00 0.01 0.00 91 1009.4
20260508124004 35 290 1.7 4.3 0.00 0.01 0.00 91 1009.3
20260508123504 35 290 2.6 4.3 0.00 0.01 0.00 90 1009.0
20260508123004 36 290 2.6 5.2 0.00 0.01 0.00 91 1009.0
20260508122504 36 293 3.5 6.1 0.00 0.01 0.00 90 1009.1
20260508121504 36 187 5.2 6.1 0.00 0.01 0.00 92 1009.1
20260508121004 36 150 5.2 7.8 0.00 0.01 0.00 94 1009.4
20260508115504 35 116 2.6 4.3 0.00 0.01 0.00 94 1009.5
20260508114504 34 21 5.2 12.2 0.00 0.01 0.00 95 1009.6
20260508114004 34 16 8.7 12.2 0.00 0.01 0.00 95 1009.7
20260508113504 34 27 8.7 10.4 0.00 0.01 0.00 95 1009.7
20260508113005 33 34 10.4 14.8 0.00 0.01 0.00 95 1009.8
20260508112504 32 29 7.0 10.4 0.00 0.01 0.00 95 1009.7
20260508112005 31 31 5.2 7.8 0.00 0.01 0.00 94 1009.1
20260508111004 31 346 0.9 1.7 0.00 0.01 0.00 94 1009.0
20260508110504 31 346 0.0 0.0 0.00 0.01 0.00 94 1008.8
20260508110005 31 346 0.0 0.0 0.00 0.01 0.00 94 1008.8
20260508105504 31 346 0.0 0.0 0.00 0.01 0.00 93 1008.7
20260508105004 31 346 0.0 0.0 0.00 0.01 0.00 93 1008.3
20260508104005 31 346 0.0 2.6 0.00 0.01 0.00 94 1008.3
20260508103504 31 346 1.7 2.6 0.00 0.01 0.00 94 1008.5
20260508103004 32 346 1.7 2.6 0.00 0.01 0.00 94 1008.5
20260508102504 32 203 2.6 2.6 0.00 0.01 0.00 94 1008.5
20260508101504 32 86 0.9 5.2 0.00 0.01 0.00 93 1008.5
20260508100004 32 233 3.5 5.2 0.00 0.01 0.00 94 1008.1
20260508095504 32 223 2.6 4.3 0.00 0.01 0.00 94 1007.9
20260508095004 32 310 1.7 2.6 0.00 0.01 0.00 94 1008.2
20260508094504 32 324 1.7 2.6 0.00 0.01 0.00 93 1008.0
20260508094004 31 286 0.9 2.6 0.00 0.01 0.00 93 1008.3
20260508093504 31 356 1.7 2.6 0.00 0.01 0.00 93 1008.1
20260508092504 32 352 2.6 6.1 0.00 0.01 0.00 92 1008.0
20260508092004 32 351 0.9 2.6 0.00 0.01 0.00 93 1007.8
20260508091504 32 299 0.0 0.0 0.00 0.01 0.00 93 1007.8
20260508091004 32 299 0.0 2.6 0.00 0.01 0.00 92 1007.9
20260508090504 32 299 0.0 2.6 0.00 0.01 0.00 92 1007.9
20260508090004 33 323 0.0 0.0 0.00 0.01 0.00 92 1007.9
20260508085504 33 323 0.0 0.0 0.00 0.01 0.00 92 1008.0
20260508085004 33 323 0.0 0.0 0.00 0.01 0.00 92 1008.0
20260508084504 33 323 0.0 0.0 0.00 0.01 0.00 93 1007.9
20260508084004 33 323 0.0 1.7 0.00 0.01 0.00 93 1007.9
20260508083504 33 323 0.9 7.0 0.00 0.01 0.00 92 1008.2
20260508083004 33 313 0.9 5.2 0.00 0.01 0.00 92 1008.2
20260508082004 34 346 0.0 1.7 0.00 0.01 0.00 91 1008.0
20260508080504 34 24 4.3 4.3 0.00 0.01 0.00 91 1008.3
20260508080004 34 259 0.9 1.7 0.00 0.01 0.00 92 1008.4
20260508075504 35 259 1.7 2.6 0.00 0.01 0.00 91 1008.3
20260508075004 35 259 0.9 1.7 0.00 0.01 0.00 92 1008.6
20260508074504 35 259 0.9 4.3 0.00 0.01 0.00 92 1008.5
20260508074004 35 259 2.6 5.2 0.00 0.01 0.00 91 1008.8
20260508073504 35 260 0.0 2.6 0.00 0.01 0.00 91 1008.5
20260508073004 35 260 2.6 2.6 0.00 0.01 0.00 91 1008.7
20260508072504 35 260 0.9 2.6 0.00 0.01 0.00 91 1008.7
20260508072004 35 260 1.7 2.6 0.00 0.01 0.00 91 1008.9
20260508071504 35 32 2.6 4.3 0.00 0.01 0.00 90 1008.8
20260508071003 35 260 0.9 2.6 0.00 0.01 0.00 91 1008.8
20260508065504 35 356 1.7 2.6 0.00 0.01 0.00 90 1008.8
20260508065004 35 340 0.0 0.0 0.00 0.01 0.00 90 1008.9
20260508064504 35 340 0.9 2.6 0.00 0.01 0.00 89 1008.7
20260508064004 35 340 2.6 2.6 0.00 0.01 0.00 89 1008.7
20260508063504 36 340 1.7 2.6 0.00 0.01 0.00 89 1008.7
20260508062504 36 210 1.7 2.6 0.00 0.01 0.00 88 1008.7
20260508062005 36 210 0.9 2.6 0.00 0.01 0.00 87 1008.6
20260508061504 37 210 1.7 4.3 0.00 0.01 0.00 88 1008.5
20260508061004 37 210 0.0 2.6 0.00 0.01 0.00 87 1008.4
20260508060504 37 210 2.6 2.6 0.00 0.01 0.00 86 1008.5
20260508060005 38 358 2.6 2.6 0.00 0.01 0.00 85 1008.4
20260508055504 38 342 1.7 2.6 0.00 0.01 0.01 85 1008.4
20260508055004 38 342 2.6 2.6 0.00 0.01 0.01 85 1008.4
20260508054504 39 342 2.6 6.1 0.00 0.01 0.01 84 1008.5
20260508054004 39 350 3.5 5.2 0.00 0.01 0.01 84 1008.4
20260508053504 39 252 4.3 6.1 0.00 0.01 0.01 84 1008.5
20260508053004 39 252 3.5 5.2 0.00 0.01 0.01 84 1008.6
20260508052004 39 267 2.6 4.3 0.01 0.01 0.01 84 1008.8
20260508051504 40 232 2.6 2.6 0.01 0.01 0.01 84 1009.0
20260508051004 40 232 2.6 4.3 0.01 0.01 0.01 84 1009.0
20260508050505 40 223 2.6 6.1 0.01 0.01 0.01 83 1009.0
20260508050004 40 325 1.7 2.6 0.01 0.01 0.01 83 1009.0
20260508045504 40 325 1.7 4.3 0.01 0.01 0.01 82 1009.0
20260508045004 40 309 1.7 4.3 0.01 0.01 0.01 82 1009.1
20260508044504 40 298 2.6 6.1 0.01 0.01 0.01 83 1009.6
20260508044004 39 243 4.3 6.1 0.01 0.01 0.01 84 1009.3
20260508043004 40 273 4.3 8.7 0.01 0.01 0.01 83 1008.9
20260508041504 40 240 2.6 4.3 0.00 0.00 0.00 81 1008.5
20260508041004 40 188 3.5 7.8 0.00 0.00 0.00 80 1008.3
20260508040504 40 157 4.3 5.2 0.00 0.00 0.00 79 1008.2
20260508040005 41 277 2.6 5.2 0.00 0.00 0.00 78 1008.0
20260508035504 41 314 1.7 2.6 0.00 0.00 0.00 78 1008.0
20260508035004 41 317 2.6 4.3 0.00 0.00 0.00 77 1008.0
20260508034504 42 317 3.5 4.3 0.00 0.00 0.00 77 1008.2
20260508033504 43 317 3.5 5.2 0.00 0.00 0.00 76 1008.2
20260508033005 43 317 2.6 4.3 0.00 0.00 0.00 75 1008.2
20260508032004 43 267 3.5 11.3 0.00 0.00 0.00 73 1008.6
20260508031505 43 242 5.2 11.3 0.00 0.00 0.00 74 1008.8
20260508031004 44 256 6.1 13.0 0.00 0.00 0.00 74 1008.9
20260508030504 44 295 11.3 26.1 0.00 0.00 0.00 70 1008.9
20260508030004 44 303 4.3 8.7 0.00 0.00 0.00 64 1008.2
20260508025504 44 325 5.2 6.1 0.00 0.00 0.00 63 1007.8
20260508024504 45 26 3.5 4.3 0.00 0.00 0.00 60 1007.6
20260508024004 46 34 1.7 2.6 0.00 0.00 0.00 60 1007.4
20260508023504 47 275 2.6 2.6 0.00 0.00 0.00 58 1007.1
20260508022004 47 275 1.7 4.3 0.00 0.00 0.00 56 1007.1
20260508021004 47 275 2.6 2.6 0.00 0.00 0.00 56 1007.1
20260508020504 47 275 1.7 5.2 0.00 0.00 0.00 56 1007.0
20260508020004 47 257 3.5 5.2 0.00 0.00 0.00 55 1007.1
20260508015504 48 255 1.7 4.3 0.00 0.00 0.00 55 1007.2
20260508015004 48 255 2.6 4.3 0.00 0.00 0.00 54 1007.5
20260508014504 49 255 2.6 2.6 0.00 0.00 0.00 54 1007.4
20260508014004 49 255 0.9 2.6 0.00 0.00 0.00 54 1007.3
20260508013504 49 255 0.9 1.7 0.00 0.00 0.00 53 1007.4
20260508013004 50 255 2.6 4.3 0.00 0.00 0.00 52 1007.2
20260508012504 50 255 2.6 6.1 0.00 0.00 0.00 50 1007.2
20260508012004 51 306 1.7 2.6 0.00 0.00 0.00 52 1007.0
20260508011503 51 352 0.9 2.6 0.00 0.00 0.00 52 1007.1
20260508010504 51 352 1.7 2.6 0.00 0.00 0.00 52 1007.1
20260508010004 51 352 2.6 4.3 0.00 0.00 0.00 53 1007.0
20260508005504 51 236 0.9 2.6 0.00 0.00 0.00 53 1006.8
20260508005004 51 225 4.3 8.7 0.00 0.00 0.00 52 1006.8
20260508004004 52 274 2.6 5.2 0.00 0.00 0.00 51 1006.9
20260508003504 52 299 1.7 4.3 0.00 0.01 0.00 53 1007.2
20260508002504 51 340 3.5 7.0 0.00 0.01 0.00 54 1007.5
20260508002004 51 314 4.3 7.0 0.00 0.01 0.00 53 1007.6
20260508001504 51 325 5.2 8.7 0.00 0.01 0.00 54 1007.5
20260508001004 50 306 5.2 12.2 0.00 0.01 0.00 54 1007.8
20260508000503 50 283 7.0 12.2 0.00 0.01 0.00 53 1008.1
20260508000004 50 308 7.8 14.8 0.00 0.01 0.00 52 1008.3
20260507235504 50 307 5.2 13.0 0.00 0.01 0.00 49 1007.9
20260507235004 51 313 5.2 10.4 0.00 0.01 0.00 49 1007.9
20260507234504 52 355 7.8 13.0 0.00 0.02 0.00 48 1007.7
20260507234004 52 345 7.8 13.0 0.00 0.02 0.00 47 1007.5
20260507233504 52 282 10.4 13.9 0.00 0.02 0.00 41 1007.5
20260507233004 52 290 6.1 14.8 0.00 0.02 0.00 40 1007.6
20260507232504 53 258 1.7 5.2 0.00 0.02 0.00 39 1007.7
20260507231504 53 269 4.3 12.2 0.00 0.03 0.00 37 1007.5
20260507230004 54 271 6.1 10.4 0.00 0.04 0.00 36 1007.5
20260507225504 55 289 5.2 13.9 0.00 0.04 0.00 36 1007.6
20260507224504 55 225 3.5 6.1 0.00 0.05 0.00 35 1007.6
20260507223505 53 268 7.8 17.4 0.00 0.06 0.00 37 1007.7
20260507222503 54 244 7.0 11.3 0.00 0.08 0.00 37 1007.6
20260507222004 54 264 2.6 11.3 0.00 0.09 0.00 37 1007.7
20260507221504 54 254 3.5 13.9 0.00 0.10 0.00 37 1007.7
20260507221004 53 247 6.1 11.3 0.00 0.11 0.00 37 1007.8
20260507220504 53 263 7.8 20.0 0.00 0.12 0.00 36 1007.8
20260507220004 53 253 5.2 11.3 0.00 0.14 0.00 36 1008.0
20260507215004 52 295 7.8 20.9 0.00 0.17 0.00 39 1008.6
20260507214503 52 252 8.7 17.4 0.00 0.18 0.00 37 1008.9
20260507214004 52 210 8.7 17.4 0.00 0.20 0.00 36 1008.7
20260507213004 52 233 7.8 13.0 0.00 0.24 0.00 37 1008.9
20260507212004 52 213 6.1 13.9 0.00 0.28 0.00 37 1009.0
20260507211504 53 240 7.8 11.3 0.00 0.29 0.00 35 1009.1
20260507211004 53 264 4.3 8.7 0.00 0.31 0.00 36 1009.3
20260507210504 53 244 6.1 17.4 0.00 0.33 0.00 36 1009.4
20260507210004 52 239 10.4 17.4 0.00 0.35 0.00 36 1009.5
20260507205504 53 238 10.4 17.4 0.00 0.38 0.00 36 1009.8
20260507205004 53 277 3.5 13.9 0.00 0.40 0.00 38 1010.2
20260507204505 53 250 7.0 15.6 0.00 0.42 0.00 37 1010.5
20260507204004 53 264 5.2 10.4 0.00 0.45 0.00 37 1010.4
20260507203504 52 260 6.1 15.6 0.00 0.46 0.00 37 1010.5
20260507203004 53 301 9.6 17.4 0.00 0.48 0.00 37 1010.6
20260507202004 54 270 8.7 14.8 0.00 0.50 0.00 36 1010.4
20260507201505 52 269 4.3 12.2 0.00 0.51 0.00 39 1010.5
20260507201004 52 264 6.1 12.2 0.00 0.52 0.00 38 1010.6
20260507200504 53 258 6.1 14.8 0.00 0.53 0.00 38 1010.7
20260507200004 52 176 2.6 7.0 0.00 0.53 0.00 40 1010.6
20260507195504 52 247 6.1 17.4 0.00 0.54 0.00 39 1010.6
20260507195004 52 258 7.0 13.9 0.00 0.55 0.00 40 1010.6
20260507194504 52 290 2.6 6.1 0.00 0.55 0.00 41 1010.8
20260507193004 49 246 10.4 13.9 0.00 0.56 0.00 43 1011.3
20260507192504 49 242 4.3 10.4 0.00 0.56 0.00 44 1011.1
20260507192004 50 239 6.1 11.3 0.00 0.57 0.00 44 1011.0
20260507191504 49 257 7.8 13.0 0.00 0.57 0.00 44 1011.2
20260507191004 49 240 9.6 13.9 0.00 0.57 0.00 44 1011.0
20260507185504 49 215 7.8 13.0 0.00 0.59 0.00 44 1011.3
20260507185004 50 232 7.8 12.2 0.00 0.59 0.00 43 1011.4
20260507184504 49 241 8.7 13.9 0.00 0.60 0.00 43 1011.5
20260507183504 49 224 10.4 17.4 0.00 0.60 0.00 43 1011.5
20260507183004 49 239 12.2 17.4 0.00 0.61 0.00 44 1011.4
20260507182504 49 246 7.8 17.4 0.00 0.61 0.00 44 1011.4
20260507182004 48 244 11.3 20.9 0.00 0.62 0.00 44 1011.3
20260507181504 48 244 11.3 17.4 0.00 0.62 0.00 44 1011.2
20260507181004 48 240 14.8 20.0 0.00 0.62 0.00 44 1011.0
20260507174504 46 235 12.2 22.6 0.00 0.65 0.00 46 1011.6
20260507174004 47 238 13.9 21.7 0.00 0.66 0.00 45 1011.8
20260507173504 47 248 11.3 20.9 0.00 0.66 0.00 45 1012.0
20260507173004 47 244 13.0 20.0 0.00 0.67 0.00 45 1012.1
20260507172504 47 247 13.0 22.6 0.00 0.67 0.00 45 1012.1
20260507172004 47 249 13.0 19.1 0.00 0.67 0.00 45 1012.1
20260507171504 47 243 6.1 17.4 0.00 0.67 0.00 48 1012.2
20260507171003 45 259 11.3 17.4 0.00 0.67 0.00 49 1012.4
20260507170504 44 242 7.8 17.4 0.00 0.67 0.00 50 1012.6
20260507170005 45 248 10.4 15.6 0.00 0.67 0.00 49 1012.7
20260507165004 45 249 5.2 12.2 0.00 0.67 0.00 49 1013.1
20260507164504 44 252 5.2 10.4 0.00 0.67 0.00 49 1012.9
20260507163504 44 238 8.7 15.6 0.00 0.67 0.00 49 1012.7
20260507163004 45 228 12.2 20.0 0.00 0.67 0.00 47 1012.8
20260507162504 45 236 10.4 17.4 0.00 0.67 0.00 47 1013.0
20260507162004 45 237 10.4 20.0 0.00 0.67 0.00 47 1012.8
20260507161504 44 251 10.4 17.4 0.00 0.67 0.00 48 1013.0
20260507161004 44 246 11.3 15.6 0.00 0.67 0.00 48 1012.9
20260507160504 43 234 10.4 17.4 0.00 0.67 0.00 48 1012.7
20260507160005 43 221 7.8 13.9 0.00 0.67 0.00 50 1012.7
20260507155004 42 217 8.7 17.4 0.00 0.67 0.00 50 1013.0
20260507154504 42 225 5.2 11.3 0.00 0.67 0.00 49 1013.1
20260507154004 41 155 1.7 5.2 0.00 0.67 0.00 51 1013.3
20260507153504 41 207 4.3 14.8 0.00 0.67 0.00 52 1013.4
20260507153004 40 188 8.7 17.4 0.00 0.67 0.00 51 1013.4
20260507152504 40 197 11.3 20.0 0.00 0.67 0.00 50 1013.4
20260507152004 40 201 7.8 14.8 0.00 0.67 0.00 51 1013.5
20260507151504 40 222 9.6 21.7 0.00 0.67 0.00 51 1013.7
20260507151004 40 203 7.8 17.4 0.00 0.67 0.00 50 1013.9
20260507150504 40 192 7.0 13.0 0.00 0.67 0.00 50 1014.2
20260507150005 40 190 8.7 13.9 0.00 0.67 0.00 50 1014.4
20260507145504 39 211 5.2 11.3 0.00 0.67 0.00 51 1014.7
20260507145004 39 227 6.1 11.3 0.00 0.67 0.00 51 1014.9
20260507144004 39 246 10.4 20.0 0.00 0.67 0.00 50 1015.3
20260507143004 39 244 10.4 18.2 0.00 0.67 0.00 51 1015.0
20260507142504 39 238 8.7 17.4 0.00 0.67 0.00 51 1015.1
20260507141504 40 245 8.7 15.6 0.00 0.67 0.00 50 1014.9
20260507141004 40 246 10.4 14.8 0.00 0.67 0.00 50 1014.9
20260507140504 41 262 6.1 13.0 0.00 0.67 0.00 49 1015.0
20260507140004 40 263 1.7 10.4 0.00 0.67 0.00 51 1015.1